Weather History for Galliano, LA

Change the Weather History Date:

Tuesday, November 12, 2013

  Actual Average (KAXO) Record (KAXO)
Temperature  
Mean Temperature 61 °F -  
Max Temperature 73 °F 66 °F 75 °F (2003)
Min Temperature 48 °F 62 °F 57 °F (2000)
Degree Days  
Heating Degree Days 4    
Growing Degree Days 11 (Base 50)    
Moisture  
Dew Point 54 °F    
Average Humidity 78    
Maximum Humidity 100    
Minimum Humidity 49    
Precipitation  
Precipitation 0.00 in - - ()
Sea Level Pressure  
Sea Level Pressure 30.26 in    
Wind  
Wind Speed 9 mph (NNW)    
Max Wind Speed 26 mph    
Max Gust Speed 36 mph    
Visibility 10 miles    
Events      
Averages and records for this station are not official NWS values.
T = Trace of Precipitation, MM = Missing Value Source: NWS Daily Summary

Daily Weather History Graph

Daily Weather History Graph

Search for Another Location

Airport:

Trip Planner

Search our weather history database for the weather conditions in past years. The results will help you decide how hot, cold, wet, or windy it might be!

Date:

Astronomy

Nov. 12, 2013 Rise Set
Actual Time 6:22 AM CST 5:07 PM CST
Civil Twilight 5:57 AM CST 5:32 PM CST
Nautical Twilight 5:29 AM CST 6:00 PM CST
Astronomical Twilight 5:01 AM CST 6:29 PM CST
Moon 2:02 PM CST (11/12) 1:34 AM CST (11/12)
Length of Visible Light 11h 34m
Length of Day
10h 44m
Waxing Gibbous, 76% of the Moon is Illuminated
Nov 12
Waxing Gibbous
Nov 17
Full
Nov 25
Last Quarter
Dec 2
New
Dec 9
First Quarter

Hourly Weather History & Observations

Time (CST) Temp. Dew Point Humidity Pressure Visibility Wind Dir Wind Speed Gust Speed Precip Events Conditions
12:15 AM 58.1 °F 58.1 °F 100% 30.18 in 7.0 mi Calm Calm - N/A   Clear
12:35 AM 57.7 °F 57.7 °F 100% 30.18 in 7.0 mi Calm Calm - N/A   Clear
12:55 AM 57.6 °F 57.6 °F 100% 30.18 in 3.0 mi Calm Calm - N/A   Clear
1:15 AM 56.5 °F 56.5 °F 100% 30.18 in 3.0 mi North 4.6 mph - N/A   Clear
1:35 AM 56.5 °F 56.5 °F 100% 30.17 in 5.0 mi NNW 5.8 mph - N/A   Clear
1:55 AM 56.3 °F 56.3 °F 100% 30.17 in 7.0 mi NNW 4.6 mph - N/A   Clear
2:15 AM 56.5 °F 56.5 °F 100% 30.17 in 10.0 mi NNW 4.6 mph - N/A   Clear
2:35 AM 56.5 °F 56.5 °F 100% 30.17 in 7.0 mi NNW 3.5 mph - N/A   Clear
2:55 AM 56.3 °F 56.3 °F 100% 30.17 in 7.0 mi NNW 3.5 mph - N/A   Clear
3:15 AM 56.3 °F 56.3 °F 100% 30.17 in 10.0 mi NNW 3.5 mph - N/A   Clear
3:35 AM 56.5 °F 56.5 °F 100% 30.18 in 10.0 mi North 5.8 mph - N/A   Clear
3:55 AM 56.7 °F 56.7 °F 100% 30.18 in 10.0 mi North 6.9 mph - N/A   Clear
4:15 AM 57.2 °F 57.2 °F 100% 30.18 in 10.0 mi North 5.8 mph - N/A   Clear
4:35 AM 57.2 °F 57.2 °F 100% 30.18 in 10.0 mi North 5.8 mph - N/A   Clear
4:55 AM 57.4 °F 57.4 °F 100% 30.19 in 10.0 mi North 5.8 mph - N/A   Clear
5:15 AM 57.4 °F 57.4 °F 100% 30.19 in 10.0 mi NNW 5.8 mph - N/A   Clear
5:35 AM 57.7 °F 57.7 °F 100% 30.20 in 10.0 mi NNW 4.6 mph - N/A   Clear
5:55 AM 58.5 °F 58.5 °F 100% 30.20 in 10.0 mi North 6.9 mph - N/A   Clear
6:15 AM 59.5 °F 59.5 °F 100% 30.21 in 10.0 mi NNW 8.1 mph - N/A   Clear
6:35 AM 59.4 °F 59.4 °F 100% 30.22 in 10.0 mi North 6.9 mph - N/A   Clear
6:55 AM 59.4 °F 59.4 °F 100% 30.23 in 10.0 mi North 6.9 mph - N/A   Clear
7:15 AM 59.9 °F 59.9 °F 100% 30.23 in 10.0 mi North 4.6 mph - N/A   Clear
7:35 AM 60.3 °F 60.3 °F 100% 30.24 in 10.0 mi North 3.5 mph - N/A   Clear
7:55 AM 61.5 °F 61.5 °F 100% 30.25 in 10.0 mi North 4.6 mph - N/A   Clear
8:15 AM 63.0 °F 62.1 °F 97% 30.25 in 10.0 mi NNW 5.8 mph - N/A   Clear
8:35 AM 64.6 °F 62.2 °F 92% 30.25 in 10.0 mi NNW 5.8 mph - N/A   Clear
8:55 AM 65.8 °F 61.7 °F 86% 30.26 in 10.0 mi North 4.6 mph - N/A   Clear
9:15 AM 67.1 °F 60.1 °F 78% 30.26 in 10.0 mi North 6.9 mph - N/A   Clear
9:35 AM 68.4 °F 58.8 °F 71% 30.26 in 10.0 mi North 12.7 mph - N/A   Clear
9:55 AM 70.2 °F 58.1 °F 65% 30.26 in 10.0 mi North 15.0 mph - N/A   Clear
10:15 AM 70.2 °F 57.0 °F 63% 30.25 in 10.0 mi North 12.7 mph - N/A   Clear
10:35 AM 71.8 °F 57.6 °F 61% 30.25 in 10.0 mi North 12.7 mph 19.6 mph N/A   Clear
10:55 AM 72.9 °F 56.1 °F 56% 30.24 in 10.0 mi North 15.0 mph 19.6 mph N/A   Clear
11:15 AM 73.0 °F 55.4 °F 54% 30.24 in 10.0 mi North 13.8 mph - N/A   Clear
11:35 AM 72.9 °F 54.5 °F 52% 30.24 in 10.0 mi North 15.0 mph 21.9 mph N/A   Clear
11:55 AM 72.7 °F 53.8 °F 51% 30.23 in 10.0 mi NNW 17.3 mph 23.0 mph N/A   Clear
12:15 PM 72.7 °F 52.7 °F 49% 30.23 in 10.0 mi NNW 18.4 mph - N/A   Clear
12:35 PM 72.5 °F 53.1 °F 50% 30.22 in 10.0 mi North 17.3 mph 20.7 mph N/A   Clear
12:55 PM 73.0 °F 53.1 °F 49% 30.22 in 10.0 mi North 13.8 mph 18.4 mph N/A   Clear
1:15 PM 73.4 °F 52.9 °F 49% 30.22 in 10.0 mi North 11.5 mph - N/A   Clear
1:35 PM 73.6 °F 53.2 °F 49% 30.21 in 10.0 mi NNW 18.4 mph 24.2 mph N/A   Clear
1:55 PM 72.3 °F 52.3 °F 49% 30.21 in 10.0 mi NNW 20.7 mph 27.6 mph N/A   Clear
2:15 PM 71.8 °F 53.2 °F 52% 30.22 in 10.0 mi North 20.7 mph 26.5 mph N/A   Clear
2:35 PM 71.4 °F 54.1 °F 54% 30.23 in 10.0 mi North 18.4 mph 23.0 mph N/A   Clear
2:55 PM 71.4 °F 54.5 °F 55% 30.22 in 10.0 mi North 17.3 mph 27.6 mph N/A   Clear
3:15 PM 71.8 °F 55.0 °F 55% 30.23 in 10.0 mi North 15.0 mph 20.7 mph N/A   Clear
3:35 PM 71.1 °F 55.0 °F 57% 30.23 in 10.0 mi NNW 19.6 mph 25.3 mph N/A   Clear
3:55 PM 69.6 °F 55.4 °F 61% 30.24 in 10.0 mi NNW 24.2 mph 32.2 mph N/A   Clear
4:15 PM 65.8 °F 55.0 °F 68% 30.25 in 10.0 mi NNW 25.3 mph 35.7 mph N/A   Clear
4:35 PM 62.2 °F 53.8 °F 74% 30.27 in 10.0 mi NNW 21.9 mph 32.2 mph N/A   Clear
4:55 PM 60.1 °F 53.2 °F 78% 30.28 in 10.0 mi NNW 18.4 mph 29.9 mph N/A   Clear
5:15 PM 58.6 °F 52.7 °F 81% 30.29 in 10.0 mi NNW 24.2 mph 27.6 mph N/A   Clear
5:35 PM 58.3 °F 52.7 °F 82% 30.30 in 10.0 mi NNW 20.7 mph 27.6 mph N/A   Clear
5:55 PM 58.1 °F 52.5 °F 82% 30.31 in 10.0 mi NNW 19.6 mph 24.2 mph N/A   Clear
6:15 PM 58.1 °F 52.0 °F 80% 30.33 in 10.0 mi North 19.6 mph 25.3 mph N/A   Clear
6:35 PM 57.9 °F 51.8 °F 80% 30.34 in 10.0 mi NNW 16.1 mph 23.0 mph N/A   Scattered Clouds
6:55 PM 58.1 °F 51.1 °F 77% 30.34 in 10.0 mi NNW 21.9 mph 27.6 mph N/A   Mostly Cloudy
7:15 PM 57.6 °F 50.7 °F 78% 30.35 in 10.0 mi North 17.3 mph 23.0 mph N/A   Scattered Clouds
7:35 PM 57.2 °F 50.2 °F 77% 30.36 in 10.0 mi NNW 18.4 mph 24.2 mph N/A   Scattered Clouds
7:55 PM 57.2 °F 49.1 °F 74% 30.37 in 10.0 mi North 20.7 mph 26.5 mph N/A   Scattered Clouds
8:15 PM 55.9 °F 46.9 °F 72% 30.38 in 10.0 mi North 23.0 mph 35.7 mph N/A   Clear
8:35 PM 54.5 °F 45.7 °F 72% 30.40 in 10.0 mi North 24.2 mph 27.6 mph N/A   Clear
8:55 PM 53.6 °F 45.0 °F 73% 30.41 in 10.0 mi NNW 25.3 mph 31.1 mph N/A   Clear
9:15 PM 52.7 °F 44.2 °F 73% 30.41 in 10.0 mi North 19.6 mph 33.4 mph N/A   Scattered Clouds
9:35 PM 52.5 °F 43.2 °F 70% 30.42 in 10.0 mi North 21.9 mph 31.1 mph N/A   Scattered Clouds
9:55 PM 51.4 °F 42.1 °F 70% 30.42 in 10.0 mi North 19.6 mph 27.6 mph N/A   Scattered Clouds
10:15 PM 50.7 °F 41.2 °F 70% 30.42 in 10.0 mi NNW 24.2 mph 34.5 mph N/A   Scattered Clouds
10:35 PM 50.2 °F 38.3 °F 64% 30.43 in 10.0 mi North 25.3 mph 34.5 mph N/A   Scattered Clouds
10:55 PM 50.0 °F 38.1 °F 64% 30.43 in 10.0 mi North 24.2 mph 34.5 mph N/A   Clear
11:15 PM 49.5 °F 38.3 °F 65% 30.43 in 10.0 mi North 26.5 mph 32.2 mph N/A   Clear
11:35 PM 49.1 °F 37.8 °F 65% 30.43 in 10.0 mi North 24.2 mph 34.5 mph N/A   Clear
11:55 PM 48.6 °F 38.5 °F 68% 30.42 in 10.0 mi North 19.6 mph 29.9 mph N/A   Clear